| time (UTC) | temp F | wind direction | speed MPH | gust MPH | rain 1hr in | rain 24hr in | rain mn in | humidity % | barometer mb |
| 20260902192517 | 68 | 118 | 1.0 | 2.0 | 0.00 | 0.00 | 0.00 | 72 | 1027.6 |
| 20260902191713 | 68 | 112 | 0.0 | 1.0 | 0.00 | 0.00 | 0.00 | 71 | 1027.6 |
| 20260902190517 | 69 | 86 | 1.0 | 3.0 | 0.00 | 0.00 | 0.00 | 69 | 1027.5 |
| 20260902185533 | 70 | 58 | 1.0 | 2.0 | 0.00 | 0.00 | 0.00 | 66 | 1027.2 |
| 20260902184517 | 71 | 353 | 1.0 | 3.0 | 0.00 | 0.00 | 0.00 | 64 | 1027.0 |
| 20260902183533 | 72 | 346 | 3.0 | 4.0 | 0.00 | 0.00 | 0.00 | 61 | 1026.8 |
| 20260902182518 | 72 | 330 | 4.0 | 6.0 | 0.00 | 0.00 | 0.00 | 60 | 1026.7 |
| 20260902181536 | 71 | 331 | 3.0 | 7.0 | 0.00 | 0.00 | 0.00 | 63 | 1026.5 |
| 20260902180517 | 73 | 331 | 1.0 | 2.0 | 0.00 | 0.00 | 0.00 | 60 | 1026.3 |
| 20260902175518 | 74 | 320 | 3.0 | 6.0 | 0.00 | 0.00 | 0.00 | 58 | 1026.2 |
| 20260902174523 | 74 | 318 | 5.0 | 10.0 | 0.00 | 0.00 | 0.00 | 57 | 1026.0 |
| 20260902173538 | 75 | 304 | 6.0 | 11.0 | 0.00 | 0.00 | 0.00 | 56 | 1026.0 |
| 20260902172531 | 74 | 322 | 6.0 | 10.0 | 0.00 | 0.00 | 0.00 | 58 | 1025.7 |
| 20260902171517 | 75 | 322 | 6.0 | 10.0 | 0.00 | 0.00 | 0.00 | 57 | 1025.7 |
| 20260902170524 | 75 | 320 | 5.0 | 10.0 | 0.00 | 0.00 | 0.00 | 58 | 1025.5 |
| 20260902165518 | 75 | 323 | 5.0 | 8.0 | 0.00 | 0.00 | 0.00 | 57 | 1025.3 |
| 20260902164527 | 75 | 335 | 4.0 | 7.0 | 0.00 | 0.00 | 0.00 | 57 | 1025.2 |
| 20260902163518 | 75 | 321 | 5.0 | 9.0 | 0.00 | 0.00 | 0.00 | 57 | 1025.2 |
| 20260902162527 | 76 | 330 | 5.0 | 9.0 | 0.00 | 0.00 | 0.00 | 56 | 1025.1 |
| 20260902161517 | 76 | 325 | 7.0 | 11.0 | 0.00 | 0.00 | 0.00 | 56 | 1025.1 |
| 20260902160520 | 77 | 329 | 7.0 | 10.0 | 0.00 | 0.00 | 0.00 | 55 | 1024.9 |
| 20260902155518 | 77 | 330 | 7.0 | 11.0 | 0.00 | 0.00 | 0.00 | 55 | 1025.0 |
| 20260902154527 | 77 | 324 | 5.0 | 10.0 | 0.00 | 0.00 | 0.00 | 54 | 1024.9 |
| 20260902153517 | 78 | 327 | 5.0 | 8.0 | 0.00 | 0.00 | 0.00 | 53 | 1024.8 |
| 20260902152633 | 78 | 328 | 6.0 | 13.0 | 0.00 | 0.00 | 0.00 | 53 | 1024.8 |
| 20260902151533 | 78 | 324 | 7.0 | 10.0 | 0.00 | 0.00 | 0.00 | 52 | 1024.9 |
| 20260902150517 | 79 | 320 | 6.0 | 9.0 | 0.00 | 0.00 | 0.00 | 52 | 1024.9 |
| 20260902145534 | 79 | 323 | 8.0 | 11.0 | 0.00 | 0.00 | 0.00 | 52 | 1024.9 |
| 20260902144517 | 79 | 322 | 8.0 | 13.0 | 0.00 | 0.00 | 0.00 | 52 | 1025.0 |
| 20260902143533 | 79 | 331 | 7.0 | 13.0 | 0.00 | 0.00 | 0.00 | 52 | 1025.0 |
| 20260902142517 | 79 | 328 | 8.0 | 15.0 | 0.00 | 0.00 | 0.00 | 52 | 1025.0 |
| 20260902141533 | 79 | 328 | 8.0 | 13.0 | 0.00 | 0.00 | 0.00 | 52 | 1025.0 |
| 20260902140525 | 79 | 323 | 9.0 | 17.0 | 0.00 | 0.00 | 0.00 | 52 | 1025.1 |
| 20260902135533 | 80 | 345 | 5.0 | 11.0 | 0.00 | 0.00 | 0.00 | 52 | 1025.1 |
| 20260902134517 | 79 | 335 | 5.0 | 14.0 | 0.00 | 0.00 | 0.00 | 52 | 1025.3 |
| 20260902133533 | 78 | 337 | 8.0 | 14.0 | 0.00 | 0.00 | 0.00 | 53 | 1025.2 |
| 20260902132518 | 78 | 325 | 7.0 | 14.0 | 0.00 | 0.00 | 0.00 | 53 | 1025.2 |
| 20260902131516 | 78 | 334 | 8.0 | 15.0 | 0.00 | 0.00 | 0.00 | 54 | 1025.4 |
| 20260902130517 | 77 | 338 | 7.0 | 15.0 | 0.00 | 0.00 | 0.00 | 56 | 1025.4 |
| 20260902125533 | 78 | 335 | 5.0 | 10.0 | 0.00 | 0.00 | 0.00 | 55 | 1025.4 |
| 20260902124517 | 78 | 344 | 8.0 | 14.0 | 0.00 | 0.00 | 0.00 | 55 | 1025.4 |
| 20260902123516 | 77 | 339 | 5.0 | 10.0 | 0.00 | 0.00 | 0.00 | 55 | 1025.6 |
| 20260902122518 | 78 | 324 | 4.0 | 8.0 | 0.00 | 0.00 | 0.00 | 55 | 1025.8 |
| 20260902121516 | 76 | 329 | 4.0 | 8.0 | 0.00 | 0.00 | 0.00 | 56 | 1025.9 |
| 20260902120517 | 76 | 339 | 5.0 | 9.0 | 0.00 | 0.00 | 0.00 | 56 | 1026.0 |
| 20260902115517 | 77 | 336 | 3.0 | 8.0 | 0.00 | 0.00 | 0.00 | 56 | 1026.3 |
| 20260902114528 | 76 | 335 | 2.0 | 6.0 | 0.00 | 0.00 | 0.00 | 60 | 1026.3 |
| 20260902113518 | 75 | 357 | 2.0 | 4.0 | 0.00 | 0.00 | 0.00 | 60 | 1026.4 |
| 20260902112528 | 74 | 330 | 4.0 | 6.0 | 0.00 | 0.00 | 0.00 | 59 | 1026.6 |
| 20260902111518 | 75 | 333 | 3.0 | 7.0 | 0.00 | 0.00 | 0.00 | 58 | 1026.7 |
| 20260902110524 | 74 | 6 | 2.0 | 4.0 | 0.00 | 0.00 | 0.00 | 59 | 1026.7 |
| 20260902105518 | 74 | 15 | 3.0 | 7.0 | 0.00 | 0.00 | 0.00 | 60 | 1027.0 |
| 20260902104527 | 74 | 326 | 2.0 | 3.0 | 0.00 | 0.00 | 0.00 | 59 | 1027.1 |
| 20260902103534 | 75 | 20 | 2.0 | 6.0 | 0.00 | 0.00 | 0.00 | 59 | 1027.2 |
| 20260902102538 | 73 | 17 | 1.0 | 4.0 | 0.00 | 0.00 | 0.00 | 62 | 1027.2 |
| 20260902101533 | 71 | 330 | 2.0 | 4.0 | 0.00 | 0.00 | 0.00 | 64 | 1027.6 |
| 20260902100518 | 71 | 353 | 2.0 | 6.0 | 0.00 | 0.00 | 0.00 | 64 | 1027.8 |
| 20260902095534 | 71 | 13 | 2.0 | 3.0 | 0.00 | 0.00 | 0.00 | 64 | 1027.8 |
| 20260902094518 | 72 | 322 | 1.0 | 3.0 | 0.00 | 0.00 | 0.00 | 65 | 1028.0 |
| 20260902093533 | 69 | 328 | 2.0 | 4.0 | 0.00 | 0.00 | 0.00 | 67 | 1028.1 |
| 20260902092517 | 70 | 79 | 1.0 | 3.0 | 0.00 | 0.00 | 0.00 | 64 | 1028.2 |
| 20260902091534 | 68 | 5 | 1.0 | 3.0 | 0.00 | 0.00 | 0.00 | 70 | 1028.3 |
| 20260902090518 | 68 | 38 | 1.0 | 2.0 | 0.00 | 0.00 | 0.00 | 68 | 1028.3 |
| 20260902085533 | 68 | 359 | 1.0 | 3.0 | 0.00 | 0.00 | 0.00 | 68 | 1028.4 |
| 20260902084518 | 68 | 15 | 1.0 | 2.0 | 0.00 | 0.00 | 0.00 | 68 | 1028.5 |
| 20260902083534 | 67 | 333 | 2.0 | 4.0 | 0.00 | 0.00 | 0.00 | 70 | 1028.5 |
| 20260902082517 | 68 | 11 | 1.0 | 4.0 | 0.00 | 0.00 | 0.00 | 71 | 1028.4 |
| 20260902081533 | 66 | 81 | 1.0 | 2.0 | 0.00 | 0.00 | 0.00 | 74 | 1028.6 |
| 20260902080518 | 65 | 29 | 2.0 | 4.0 | 0.00 | 0.00 | 0.00 | 78 | 1028.7 |
| 20260902075516 | 65 | 69 | 1.0 | 3.0 | 0.00 | 0.00 | 0.00 | 77 | 1028.8 |
| 20260902074518 | 64 | 50 | 1.0 | 3.0 | 0.00 | 0.00 | 0.00 | 80 | 1028.7 |
| 20260902073516 | 63 | 50 | 1.0 | 2.0 | 0.00 | 0.00 | 0.00 | 80 | 1028.8 |
| 20260902072518 | 63 | 68 | 1.0 | 2.0 | 0.00 | 0.00 | 0.00 | 81 | 1029.0 |
| 20260902071516 | 63 | 33 | 0.0 | 1.0 | 0.00 | 0.00 | 0.00 | 81 | 1028.9 |
| 20260902070538 | 62 | 85 | 1.0 | 2.0 | 0.00 | 0.00 | 0.00 | 83 | 1029.0 |
| 20260902065516 | 61 | 95 | 1.0 | 3.0 | 0.00 | 0.00 | 0.00 | 84 | 1029.0 |
| 20260902064518 | 60 | 26 | 0.0 | 1.0 | 0.00 | 0.00 | 0.00 | 85 | 1029.1 |
| 20260902063556 | 57 | 23 | 0.0 | 1.0 | 0.00 | 0.00 | 0.00 | 91 | 1029.2 |
| 20260902062517 | 57 | 52 | 1.0 | 2.0 | 0.00 | 0.00 | 0.00 | 90 | 1029.1 |
| 20260902061515 | 55 | 0.0 | 0.0 | 0.00 | 0.00 | 0.00 | 95 | 1028.9 | |
| 20260902060517 | 55 | 0.0 | 0.0 | 0.00 | 0.00 | 0.00 | 95 | 1028.8 | |
| 20260902055533 | 54 | 348 | 1.0 | 2.0 | 0.00 | 0.00 | 0.00 | 95 | 1028.9 |
| 20260902054517 | 54 | 0.0 | 0.0 | 0.00 | 0.00 | 0.00 | 95 | 1028.9 | |
| 20260902053533 | 54 | 28 | 0.0 | 1.0 | 0.00 | 0.00 | 0.00 | 95 | 1028.8 |
| 20260902052542 | 54 | 27 | 0.0 | 1.0 | 0.00 | 0.00 | 0.00 | 95 | 1028.8 |
| 20260902051518 | 54 | 27 | 0.0 | 1.0 | 0.00 | 0.00 | 0.00 | 96 | 1028.7 |
| 20260902050520 | 53 | 0.0 | 0.0 | 0.00 | 0.00 | 0.00 | 96 | 1028.6 | |
| 20260902045518 | 54 | 0.0 | 0.0 | 0.00 | 0.00 | 0.00 | 95 | 1028.6 | |
| 20260902044524 | 54 | 348 | 0.0 | 1.0 | 0.00 | 0.00 | 0.00 | 95 | 1028.5 |
| 20260902043528 | 54 | 348 | 0.0 | 1.0 | 0.00 | 0.00 | 0.00 | 95 | 1028.5 |
| 20260902042532 | 54 | 348 | 0.0 | 1.0 | 0.00 | 0.00 | 0.00 | 94 | 1028.4 |
| 20260902041545 | 55 | 0.0 | 0.0 | 0.00 | 0.00 | 0.00 | 94 | 1028.4 | |
| 20260902040520 | 55 | 342 | 1.0 | 2.0 | 0.00 | 0.00 | 0.00 | 94 | 1028.3 |
| 20260902035526 | 55 | 0.0 | 0.0 | 0.00 | 0.00 | 0.00 | 95 | 1028.2 | |
| 20260902034528 | 55 | 42 | 0.0 | 2.0 | 0.00 | 0.00 | 0.00 | 94 | 1028.3 |
| 20260902033526 | 55 | 342 | 0.0 | 1.0 | 0.00 | 0.00 | 0.00 | 94 | 1028.4 |
| 20260902032520 | 55 | 344 | 0.0 | 1.0 | 0.00 | 0.00 | 0.00 | 93 | 1028.5 |
| 20260902031526 | 56 | 205 | 0.0 | 1.0 | 0.00 | 0.00 | 0.00 | 93 | 1028.5 |
| 20260902030519 | 57 | 204 | 0.0 | 1.0 | 0.00 | 0.00 | 0.00 | 92 | 1028.5 |
| 20260902025526 | 57 | 205 | 0.0 | 1.0 | 0.00 | 0.00 | 0.00 | 92 | 1028.5 |
| 20260902024540 | 57 | 204 | 1.0 | 1.0 | 0.00 | 0.00 | 0.00 | 92 | 1028.5 |
| 20260902023546 | 57 | 71 | 1.0 | 2.0 | 0.00 | 0.00 | 0.00 | 92 | 1028.5 |
| 20260902022520 | 57 | 57 | 0.0 | 1.0 | 0.00 | 0.00 | 0.00 | 92 | 1028.7 |
| 20260902021526 | 57 | 51 | 1.0 | 2.0 | 0.00 | 0.00 | 0.00 | 92 | 1028.7 |
| 20260902020542 | 57 | 36 | 0.0 | 1.0 | 0.00 | 0.00 | 0.00 | 92 | 1028.7 |
| 20260902015525 | 57 | 34 | 0.0 | 2.0 | 0.00 | 0.00 | 0.00 | 92 | 1028.8 |
| 20260902014520 | 57 | 0.0 | 0.0 | 0.00 | 0.00 | 0.00 | 91 | 1028.8 | |
| 20260902013526 | 58 | 0.0 | 0.0 | 0.00 | 0.00 | 0.00 | 90 | 1028.8 | |
| 20260902012520 | 58 | 29 | 0.0 | 1.0 | 0.00 | 0.00 | 0.00 | 91 | 1028.8 |
| 20260902011516 | 57 | 29 | 1.0 | 1.0 | 0.00 | 0.00 | 0.00 | 92 | 1028.8 |
| 20260902010520 | 57 | 17 | 1.0 | 2.0 | 0.00 | 0.00 | 0.00 | 92 | 1028.6 |
| 20260902005523 | 58 | 0.0 | 0.0 | 0.00 | 0.00 | 0.00 | 89 | 1028.7 | |
| 20260902004517 | 58 | 329 | 1.0 | 2.0 | 0.00 | 0.00 | 0.00 | 89 | 1028.7 |
| 20260902003528 | 58 | 326 | 1.0 | 2.0 | 0.00 | 0.00 | 0.00 | 89 | 1028.7 |
| 20260902002518 | 57 | 1 | 0.0 | 1.0 | 0.00 | 0.00 | 0.00 | 90 | 1028.7 |
| 20260902001528 | 58 | 344 | 0.0 | 1.0 | 0.00 | 0.00 | 0.00 | 89 | 1028.6 |
| 20260902000518 | 58 | 329 | 0.0 | 1.0 | 0.00 | 0.00 | 0.00 | 88 | 1028.6 |
| 20260901235528 | 59 | 329 | 0.0 | 1.0 | 0.00 | 0.00 | 0.00 | 86 | 1028.6 |
| 20260901234518 | 59 | 331 | 1.0 | 2.0 | 0.00 | 0.00 | 0.00 | 87 | 1028.6 |
| 20260901233528 | 59 | 313 | 1.0 | 2.0 | 0.00 | 0.00 | 0.00 | 88 | 1028.6 |
| 20260901232518 | 59 | 0.0 | 0.0 | 0.00 | 0.00 | 0.00 | 87 | 1028.7 | |
| 20260901231520 | 59 | 312 | 0.0 | 1.0 | 0.00 | 0.00 | 0.00 | 86 | 1028.6 |
| 20260901230517 | 60 | 313 | 0.0 | 1.0 | 0.00 | 0.00 | 0.00 | 86 | 1028.6 |
| 20260901225528 | 60 | 0.0 | 0.0 | 0.00 | 0.00 | 0.00 | 85 | 1028.4 | |
| 20260901224518 | 60 | 315 | 1.0 | 2.0 | 0.00 | 0.00 | 0.00 | 85 | 1028.4 |
| 20260901223528 | 60 | 336 | 1.0 | 2.0 | 0.00 | 0.00 | 0.00 | 87 | 1028.3 |
| 20260901222518 | 61 | 294 | 0.0 | 1.0 | 0.00 | 0.00 | 0.00 | 84 | 1028.3 |
| 20260901221548 | 61 | 295 | 0.0 | 1.0 | 0.00 | 0.00 | 0.00 | 84 | 1028.3 |
| 20260901220518 | 62 | 294 | 0.0 | 1.0 | 0.00 | 0.00 | 0.00 | 83 | 1028.4 |
| 20260901215532 | 61 | 315 | 1.0 | 1.0 | 0.00 | 0.00 | 0.00 | 83 | 1028.4 |
| 20260901214518 | 62 | 293 | 0.0 | 1.0 | 0.00 | 0.00 | 0.00 | 81 | 1028.4 |
| 20260901213528 | 63 | 293 | 1.0 | 2.0 | 0.00 | 0.00 | 0.00 | 78 | 1028.3 |
| 20260901212538 | 63 | 293 | 1.0 | 2.0 | 0.00 | 0.00 | 0.00 | 79 | 1028.2 |
| 20260901211528 | 63 | 358 | 2.0 | 6.0 | 0.00 | 0.00 | 0.00 | 79 | 1028.1 |
| 20260901210517 | 64 | 301 | 1.0 | 2.0 | 0.00 | 0.00 | 0.00 | 76 | 1028.2 |
| 20260901205528 | 63 | 308 | 2.0 | 2.0 | 0.00 | 0.00 | 0.00 | 78 | 1028.1 |
| 20260901204518 | 64 | 325 | 0.0 | 2.0 | 0.00 | 0.00 | 0.00 | 77 | 1028.3 |
| 20260901203528 | 64 | 325 | 1.0 | 2.0 | 0.00 | 0.00 | 0.00 | 79 | 1028.2 |
| 20260901202538 | 66 | 325 | 0.0 | 1.0 | 0.00 | 0.00 | 0.00 | 77 | 1028.0 |
| 20260901201528 | 66 | 0.0 | 0.0 | 0.00 | 0.00 | 0.00 | 76 | 1028.1 | |
| 20260901200517 | 66 | 325 | 0.0 | 1.0 | 0.00 | 0.00 | 0.00 | 75 | 1028.2 |
| 20260901195528 | 67 | 326 | 0.0 | 2.0 | 0.00 | 0.00 | 0.00 | 75 | 1027.9 |
| 20260901194518 | 68 | 326 | 0.0 | 1.0 | 0.00 | 0.00 | 0.00 | 73 | 1027.8 |
| 20260901193528 | 68 | 326 | 0.0 | 1.0 | 0.00 | 0.00 | 0.00 | 71 | 1027.8 |